CAPE
62 25 14 3 0 5 0 5 56 461 275 38 6 0 0 0 25 73 837 641 720 692 892 576 840 1538 1625 1467 1462 1347 1507 1293 1242 1172 1159 1128 1056 1055 934 1188 1417 1529 1811 1808 1540 1467 1416 1450 1810 1770 1301 1170 1465 1750 1678 1819 1838 1778 1679 1692 2221 2853 3276 3126 3133 3127 3283 2998 2059 2436 2389 2801 2649 1816 1321 1053 1142 1443 1037 594 342 453 446 352 1123 1590 2006
9 11 4 5 4 5 130 370 173 224 20 284 46 4 0 4 171 32 1118 847 269 379 505 504 1111 1260 1214 1510 1404 1244 1228 1202 1055 1072 1105 1192 1100 1102 1038 1211 1341 1261 1307 1381 1310 1897 1886 1651 1983 1964 1837 1770 1734 1567 1654 1344 1484 1515 1316 1366 1515 2184 2400 2640 2941 3177 3044 2789 2352 2703 2384 2292 2204 2310 1865 1508 1253 1478 1349 1155 1278 1159 1388 858 310 950 1921
19 16 6 8 3 30 75 192 138 10 22 213 438 48 41 174 522 1086 762 838 531 603 1192 1333 1468 1432 1591 1521 1465 1156 1124 882 882 910 846 1235 1196 1210 1223 1307 1260 1229 1235 1281 1348 1292 1535 2083 2094 2124 2358 2442 2076 1867 1888 2130 1898 1658 1745 1677 1562 1524 1938 2263 2518 2570 2817 2367 2112 2276 2376 1981 1370 1314 1035 1050 1328 1848 2344 2012 2300 3052 2137 1188 391 285 744
77 11 10 40 400 5 230 216 51 58 288 247 425 632 592 619 865 417 424 699 1134 1174 1434 1543 1540 1346 1293 1256 1285 1158 940 735 506 468 825 1217 1239 1090 1016 1055 842 1142 1228 1152 1195 1369 1427 1515 1657 2094 2261 2330 2147 1979 1940 2000 1948 2018 2107 1936 1511 1517 1535 1876 2156 2114 2051 1852 1904 2241 2437 2385 1964 1704 1534 935 1178 1119 1131 1054 2260 1774 1570 1784 2008 1208 493
34 41 23 24 204 4 158 87 0 67 98 239 158 228 258 345 507 684 714 516 758 802 1363 1731 1542 1579 1288 1160 888 757 651 500 666 811 670 842 1084 928 989 970 947 1000 1160 1075 1145 1075 1254 1367 1508 1591 1650 1594 1752 1731 1643 1659 1671 1634 1634 1733 2025 1863 1874 1842 1985 2106 2071 2145 2090 1583 1662 2017 2259 2254 2280 2113 2239 1743 1496 1640 1603 2516 2118 1568 1689 1814 1010
14 6 1 30 13 5 8 6 6 508 46 209 39 224 319 503 745 864 698 824 914 1272 1044 1072 1325 1289 1090 1010 941 752 712 715 795 706 828 1010 827 764 752 817 815 928 818 866 880 800 957 1068 1074 1365 1477 1577 1532 1452 1423 1461 1467 1498 1497 1360 1288 1347 1335 1225 1482 1554 1706 1863 2044 1516 1172 1339 1784 1775 1899 2510 2530 2250 2074 2782 2564 2096 2228 2164 2033 1753 1381
84 65 144 13 12 16 11 28 0 0 365 145 133 127 575 765 835 922 785 944 1214 978 953 1278 1065 998 695 510 570 609 516 565 731 1101 942 830 696 655 714 747 836 794 833 786 764 758 790 890 964 1038 1164 1375 1375 1342 1289 1233 1224 1224 1207 1208 1139 1089 1176 1247 1236 1100 1115 1325 1513 1554 1667 1605 1666 1931 1586 1608 1920 2346 2407 2498 2461 2781 2592 2299 1656 1410 1183
324 18 4 2 13 7 77 0 1 0 0 46 29 289 610 1010 1057 999 894 871 730 761 855 1059 734 673 544 474 520 502 577 952 820 745 743 671 661 687 714 757 771 742 747 681 665 609 691 731 829 814 881 1024 1110 1152 1186 1155 1183 1146 1078 1070 1055 1115 1114 1094 1061 1088 1082 1031 1178 1195 1409 1522 1633 1694 1495 2000 1761 2478 2362 2389 2229 1774 1669 1766 1891 1351 1294
62 30 53 140 101 191 67 209 43 4 0 52 373 229 401 751 876 809 625 797 711 571 428 452 748 518 567 494 492 435 367 657 686 690 660 610 634 640 755 782 756 711 700 655 452 589 542 537 624 736 720 680 656 681 710 708 788 816 752 748 803 812 850 845 850 864 869 877 901 913 869 897 985 1156 1008 1386 1376 1387 1806 1909 1596 1250 1288 1145 1266 1325 1327
292 162 30 3 6 4 185 189 29 1 0 0 528 384 48 556 731 580 585 422 599 561 237 218 303 410 436 372 292 365 384 518 387 554 592 600 610 618 694 771 797 717 656 602 571 548 552 559 548 552 535 506 514 545 532 530 577 584 583 630 617 606 632 672 619 614 610 600 675 771 934 956 886 814 820 943 1001 1324 1393 1712 1546 1035 803 922 1084 1165 1296
61 99 20 1 6 10 34 131 66 25 0 0 0 48 105 313 764 398 535 427 410 421 324 248 65 214 220 272 230 176 330 368 282 426 491 542 542 544 586 640 657 586 582 568 550 483 420 382 371 351 380 391 448 504 474 381 426 552 573 560 560 557 553 554 570 591 597 571 545 518 548 621 765 733 744 726 738 882 870 1286 1408 1342 993 1067 1176 1156 1000
39 452 152 92 60 319 291 187 59 36 0 0 0 0 65 121 564 619 307 230 343 301 256 171 173 202 254 193 102 88 134 181 138 250 407 442 413 408 456 427 363 294 281 280 299 311 303 262 214 348 357 378 416 473 534 500 536 544 526 500 483 436 417 448 447 425 415 408 398 424 438 456 529 521 520 590 666 802 856 857 700 1078 629 698 722 859 957
381 123 161 33 189 133 54 116 91 236 143 10 0 12 26 7 530 617 579 250 288 530 173 68 53 74 50 243 131 206 149 136 125 30 216 366 386 346 327 360 326 335 356 352 325 300 296 293 284 305 354 386 385 393 453 452 458 448 446 440 428 388 320 322 369 379 349 316 262 305 394 446 476 471 445 471 499 274 671 698 696 689 600 590 532 552 636
110 237 203 141 264 99 105 178 219 552 261 297 122 14 673 477 643 439 490 572 446 77 70 158 91 60 17 55 92 190 57 81 48 26 164 282 322 296 292 334 374 403 377 333 281 280 282 287 295 299 308 276 302 332 369 387 359 374 394 408 391 405 369 284 290 327 293 287 263 212 250 309 380 366 317 421 438 360 26 460 509 610 669 594 491 474 467
9 171 224 53 109 429 240 270 163 733 528 187 352 626 759 938 858 823 804 507 360 404 689 321 89 26 39 26 40 171 120 162 104 43 77 155 95 242 296 288 316 350 403 388 314 243 230 231 236 228 236 254 263 264 259 282 289 302 295 313 317 304 316 312 255 296 298 269 241 218 215 187 195 243 268 303 296 290 340 372 255 206 246 342 481 543 536
18 27 143 52 177 286 487 566 601 581 606 590 574 760 782 825 829 782 610 611 582 378 438 474 298 75 41 45 21 29 40 122 25 52 71 78 198 176 223 275 267 250 285 291 262 196 167 156 175 172 154 159 192 217 225 201 199 215 230 251 290 312 286 244 230 238 243 224 236 209 216 213 188 162 122 149 85 23 182 235 127 4 175 277 331 360 377
304 363 279 252 223 197 303 353 358 396 430 391 235 647 672 801 975 1089 857 837 704 468 412 442 466 476 219 60 121 93 11 54 46 41 61 46 26 0 0 0 53 42 0 0 0 0 0 0 0 0 50 135 148 175 169 187 254 307 296 268 234 217 211 205 184 192 170 126 170 185 232 230 211 187 162 91 180 140 60 24 13 7 1 43 2 54 228
280 244 243 247 192 124 57 85 128 148 121 218 447 790 831 730 893 902 1100 915 649 526 534 407 279 309 246 169 165 110 139 312 81 100 44 8 14 30 22 0 0 0 0 0 0 0 0 0 0 0 0 10 88 107 86 71 63 0 52 124 133 136 118 0 0 0 0 0 0 52 9 0 0 89 111 103 99 63 361 30 19 18 47 46 48 1 172
48 79 174 210 163 160 123 111 129 148 112 99 256 758 914 916 824 842 986 815 692 442 405 420 529 334 246 106 225 484 459 205 199 186 331 209 33 0 6 12 6 5 0 0 0 0 0 0 0 0 0 0 0 0 0 55 59 0 0 0 0 0 0 0 0 0 0 0 0 0 0 0 0 0 71 88 102 90 69 6 6 17 6 11 19 2 0
268 210 290 318 258 291 390 337 252 164 92 115 166 403 725 984 1000 892 792 837 704 827 802 563 449 409 346 400 443 612 753 722 790 669 741 671 128 78 0 0 0 0 0 0 0 0 0 0 0 0 0 0 0 0 0 0 0 0 0 0 0 0 0 0 0 0 0 0 0 0 0 0 65 49 0 0 0 0 0 0 0 0 0 2 4 8 4
339 274 155 113 91 51 125 131 131 194 183 95 104 82 579 985 783 738 776 806 796 839 790 849 790 689 387 457 468 510 664 697 634 605 648 560 377 204 68 24 1 246 16 0 0 0 0 0 0 0 0 0 0 0 0 0 0 0 0 0 0 0 0 0 0 0 0 0 0 0 0 0 0 64 0 0 0 0 0 0 0 0 0 0 0 0 0
201 497 31 93 96 81 312 268 276 223 182 171 108 64 90 80 234 511 548 551 639 696 647 728 662 713 629 430 568 556 504 531 677 490 392 368 297 153 48 22 56 94 58 2 0 0 0 0 0 0 0 0 0 0 0 0 0 0 0 0 0 0 0 0 0 0 0 0 0 0 0 0 0 0 0 0 0 0 0 0 0 0 0 0 0 0 0
404 575 439 798 942 777 558 295 272 252 226 280 220 162 134 80 100 118 204 310 444 513 493 462 778 788 727 566 572 512 490 612 654 646 486 354 300 303 91 81 164 115 50 24 2 0 0 0 0 0 0 0 0 0 0 0 0 0 0 0 0 0 0 0 0 0 0 0 0 0 0 0 0 0 0 0 0 0 0 0 0 0 0 0 0 0 0
717 631 359 171 297 442 386 297 239 284 374 367 202 209 171 126 122 136 113 157 219 187 256 364 448 726 750 593 682 621 584 722 704 662 650 582 447 398 333 262 309 228 129 53 2 0 0 0 0 0 0 0 0 0 0 0 0 0 0 0 0 0 0 0 0 0 0 0 0 0 0 0 0 0 0 0 0 0 0 0 0 0 0 0 0 0 0
461 601 494 485 441 561 274 342 277 216 107 333 364 216 145 55 48 115 177 175 140 234 288 246 106 309 610 679 694 798 707 629 825 806 778 780 678 599 452 329 380 342 232 129 68 4 0 0 0 0 0 0 0 0 0 0 0 0 0 0 0 0 0 0 0 0 0 0 0 0 0 0 0 0 1 5 0 0 0 0 0 0 0 0 0 0 0
458 395 418 339 404 469 450 417 294 331 254 273 425 428 290 104 55 96 167 243 298 180 153 284 506 224 231 448 613 658 743 732 670 843 943 778 698 664 621 438 453 491 402 319 183 37 6 8 3 0 0 0 0 0 0 0 0 0 0 0 0 0 0 0 0 0 0 0 0 0 0 0 0 0 0 0 0 0 0 0 0 0 0 0 0 0 0
434 305 320 196 303 476 239 605 539 390 268 206 81 211 216 26 62 22 67 150 230 270 244 216 276 410 463 210 296 343 583 996 1028 996 1043 1014 839 923 794 633 473 415 336 329 270 130 88 146 42 58 10 0 0 0 0 0 0 0 0 0 0 0 0 0 0 0 0 0 0 0 0 0 0 0 0 0 0 0 0 0 0 0 0 0 0 0 0
405 274 268 544 473 696 369 531 527 320 238 196 46 11 0 0 74 79 30 62 103 133 158 298 306 248 245 676 445 691 369 486 800 1077 1071 1019 1005 811 851 810 542 488 535 421 390 242 151 157 71 80 26 1 0 0 0 0 0 0 0 0 0 0 0 0 0 0 0 0 0 0 0 0 0 0 0 0 0 0 0 0 0 0 0 0 0 0 0
387 398 186 404 673 662 475 269 218 165 282 102 2 0 0 0 0 0 9 32 51 21 8 106 176 206 256 268 334 446 492 534 473 808 1057 1139 989 843 872 853 669 678 744 540 360 284 214 198 155 70 66 40 6 0 0 0 0 0 0 0 0 0 0 0 0 0 0 0 0 0 0 0 0 0 0 0 0 0 0 2 1 0 0 0 0 0 0
477 397 278 400 358 396 318 151 184 120 158 114 0 0 0 0 0 0 0 0 1 1 0 0 31 94 67 49 159 299 389 459 646 856 826 943 860 863 859 735 555 567 543 548 453 343 244 209 197 214 137 67 6 0 0 0 0 0 0 0 0 0 0 0 0 0 0 0 0 0 0 0 0 0 0 0 0 0 0 0 0 0 0 0 7 4 8
452 259 307 324 289 193 182 225 242 166 57 12 10 0 0 0 0 0 0 0 0 0 0 1 2 14 39 27 29 117 319 409 427 444 492 676 762 854 1036 781 642 582 499 562 590 414 360 331 272 304 334 106 0 0 5 0 2 0 0 0 0 0 0 0 0 0 0 0 0 0 0 0 0 0 0 0 0 0 2 0 0 0 0 1 1 0 0
411 268 343 270 195 121 130 261 152 106 42 6 0 0 1 0 0 0 0 0 0 0 0 0 0 0 0 0 2 35 50 73 136 272 403 469 630 1043 958 829 700 608 490 541 419 230 388 401 389 489 476 256 64 73 28 2 1 0 0 0 0 0 0 0 0 0 0 0 0 0 0 0 0 0 0 0 0 0 0 0 0 0 0 0 0 0 0
394 296 326 215 123 86 106 151 56 36 18 15 23 18 7 0 0 0 0 0 0 0 0 0 0 0 0 2 0 0 0 26 78 82 76 291 552 604 850 1134 1129 1079 914 452 296 296 417 444 521 593 465 252 208 103 45 5 2 0 0 0 0 0 0 0 0 0 0 0 0 0 0 0 0 0 0 0 0 0 0 0 0 0 0 0 0 0 0
347 297 272 263 209 123 78 84 64 46 28 4 0 0 0 0 0 0 0 0 0 0 0 2 0 0 0 0 0 0 0 0 5 2 6 110 234 493 720 753 889 1033 1019 725 504 434 458 634 889 651 495 342 339 142 82 35 8 28 44 0 0 0 0 0 0 0 0 0 0 0 0 0 0 0 0 0 0 0 0 0 0 0 0 0 0 0 0
269 507 310 262 228 185 156 84 64 20 5 0 0 0 0 0 0 0 0 0 0 0 0 0 0 0 0 0 0 0 0 0 2 0 29 104 184 267 660 471 410 564 530 585 815 805 705 688 601 634 615 483 402 225 177 41 4 1 2 2 1 3 0 0 0 0 0 0 0 0 0 0 0 0 0 0 0 0 0 0 0 0 0 0 0 0 0
413 435 349 280 241 127 64 14 4 0 0 0 0 0 0 0 0 0 0 0 0 0 0 0 0 0 0 0 0 0 0 0 1 10 23 101 156 284 273 637 893 776 803 698 576 726 817 603 461 585 619 382 344 218 166 115 16 26 19 0 0 0 0 0 0 0 0 0 0 0 0 0 0 0 0 0 0 0 0 0 0 0 0 0 0 1 0
381 340 355 283 235 68 67 5 1 0 0 0 0 0 0 0 0 0 0 0 0 0 0 0 0 0 0 0 0 0 0 1 4 17 66 136 225 277 236 278 443 736 973 691 670 916 776 803 789 465 145 40 278 210 190 448 372 156 70 0 0 0 0 0 0 0 0 0 0 0 0 0 0 0 0 0 0 0 0 0 0 0 0 0 0 0 0
324 315 280 184 56 4 0 0 0 0 0 0 0 0 0 0 0 0 0 0 0 0 0 0 0 0 0 0 0 0 0 0 2 17 31 97 137 179 249 421 515 893 751 762 745 716 658 388 387 336 30 246 119 104 54 188 38 16 2 0 1 0 0 0 0 0 0 0 1 0 0 0 0 0 0 0 8 0 0 0 0 0 0 0 0 0 0
111 83 11 0 0 0 0 0 0 0 0 0 0 0 0 0 0 0 0 0 0 0 0 0 0 0 0 0 0 0 0 0 0 0 23 76 130 123 239 319 471 528 459 570 478 438 813 518 414 328 195 170 22 38 46 142 90 18 16 8 0 0 0 0 0 3 10 1 0 0 0 0 0 0 0 0 0 0 2 1 0 0 0 0 0 0 0
74 0 0 0 0 0 0 0 0 0 0 0 0 0 0 0 0 0 0 0 0 0 0 0 0 0 0 2 3 2 6 6 4 10 46 59 127 112 162 276 522 577 632 385 314 158 187 312 278 190 242 294 134 69 162 196 96 31 42 29 27 4 3 0 0 0 0 0 1 0 0 0 0 0 0 0 0 0 0 0 0 0 0 0 0 0 0
43 0 0 0 0 0 0 0 0 0 0 0 0 0 0 0 0 0 0 1 2 0 0 0 0 1 4 2 3 4 6 5 6 36 83 95 51 116 163 244 389 446 669 497 290 408 192 128 37 113 288 245 161 91 14 0 0 0 0 0 13 11 0 0 0 0 0 0 0 0 0 0 0 0 0 0 0 0 0 0 1 1 0 0 0 0 0
0 0 0 0 0 0 0 0 0 0 0 0 0 0 0 1 3 3 5 5 3 5 12 6 6 9 11 8 5 3 0 0 5 19 54 78 48 63 126 279 406 530 393 424 368 318 429 337 323 365 302 254 208 200 178 132 30 0 0 0 62 12 7 1 0 0 9 0 0 0 0 1 0 0 0 0 1 1 0 0 0 1 0 0 0 1 1
0 0 0 0 1 2 1 0 0 0 0 0 0 0 2 4 6 10 8 7 9 12 10 15 20 20 19 14 15 17 27 59 72 56 76 68 224 329 392 647 483 463 322 492 406 328 238 152 74 114 122 166 203 204 159 8 31 30 32 10 37 19 0 0 1 4 8 14 0 2 1 0 0 1 1 0 0 0 1 1 1 0 1 2 2 2 2
0 0 0 0 0 0 0 0 0 0 0 0 2 4 5 9 8 10 9 10 12 14 13 15 16 17 15 20 14 32 60 64 131 54 41 154 183 228 261 280 379 304 240 466 289 256 158 150 11 1 0 51 189 182 120 83 1 9 80 49 9 0 0 0 0 5 1 0 0 0 0 0 0 0 0 0 0 1 1 0 1 1 2 2 2 1 2
0 0 0 0 0 0 0 0 0 0 1 2 5 8 12 13 18 17 17 20 20 23 24 27 27 22 26 14 38 52 87 266 189 89 84 158 103 148 440 334 351 234 138 175 329 209 192 72 14 2 0 0 0 38 22 17 1 10 30 11 2 17 19 8 2 0 0 0 0 0 0 0 0 0 0 0 0 1 0 1 2 1 0 1 2 0 1
0 0 0 0 0 1 1 2 2 5 7 9 12 10 12 15 14 14 17 21 20 19 17 19 20 21 18 30 49 44 32 30 34 120 170 63 73 441 355 96 49 137 19 159 99 40 3 3 31 26 13 0 4 2 6 35 12 2 12 7 4 1 0 0 0 0 0 0 0 0 0 0 0 0 0 0 0 0 0 0 0 1 0 2 3 1 2
0 0 0 0 0 2 2 4 5 6 11 11 11 12 13 12 11 11 17 14 16 14 16 14 10 13 15 12 27 38 35 11 78 114 382 294 162 84 28 0 2 19 0 2 0 0 4 6 26 23 11 1 0 7 10 0 8 1 1 2 2 0 0 0 1 0 0 0 0 0 0 0 0 1 1 1 0 0 1 1 1 1 2 0 0 1 1
0 0 0 1 0 2 2 2 8 10 10 12 8 12 11 8 12 16 12 12 16 16 18 19 21 19 16 8 26 26 18 43 72 85 161 147 33 1 6 1 0 0 12 0 1 0 0 0 1 1 0 0 0 2 0 0 0 1 0 2 0 0 0 0 0 0 0 0 0 0 1 1 1 1 2 1 1 1 2 0 2 0 0 0 0 1 0
0 0 1 1 0 4 4 2 1 8 9 7 11 15 9 10 14 16 7 18 16 11 9 14 16 18 9 13 24 5 18 30 116 7 0 1 3 2 0 1 0 2 9 9 4 0 0 0 0 0 0 0 0 7 0 0 0 0 0 0 0 4 1 1 0 1 0 0 0 1 1 3 2 1 2 1 1 1 0 0 1 1 0 1 1 1 0
0 0 0 4 4 4 5 6 2 12 9 12 15 11 10 14 13 2 14 20 16 14 11 7 16 18 8 3 1 52 9 6 3 0 1 0 0 0 0 0 0 2 2 0 0 0 0 0 0 0 0 0 0 0 0 0 4 0 0 1 1 1 0 0 0 0 0 2 1 1 2 2 1 2 1 1 1 1 1 1 1 2 2 2 3 1 0
0 0 2 2 0 4 0 3 3 3 9 7 6 6 6 8 7 1 1 5 16 10 9 2 15 11 12 4 6 4 2 1 2 2 2 2 3 2 2 2 2 2 0 0 0 0 0 0 0 0 0 0 0 0 0 5 0 0 0 0 2 0 0 0 0 1 2 1 3 1 2 2 1 0 0 2 1 1 1 0 0 2 1 1 0 0 1
0 3 1 2 2 6 7 6 2 10 7 4 5 8 4 1 2 2 4 0 8 8 12 16 14 10 7 1 2 3 3 3 6 8 8 5 4 4 2 1 0 0 0 0 0 0 0 0 0 0 1 0 0 0 0 1 1 0 0 0 0 1 0 0 0 0 0 0 0 0 2 2 2 0 2 0 1 1 2 0 0 0 2 2 1 1 1
Wind_Speed
nan nan nan nan nan nan nan nan nan 42 33 nan nan nan nan nan nan nan 39 40 44 47 43 36 34 30 24 24 27 25 18 20 27 26 23 20 17 14 13 13 12 14 13 14 13 13 12 14 18 19 18 18 19 19 20 23 31 36 35 33 28 24 24 24 23 20 21 23 22 18 19 22 22 21 20 20 20 18 19 15 12 13 12 10 16 14 13
nan nan nan nan nan nan 29 44 56 54 nan 53 nan nan nan nan 24 nan 49 51 51 45 35 30 32 27 24 26 25 29 24 25 32 31 28 24 20 16 16 17 12 12 15 13 12 12 12 10 13 14 16 17 16 16 17 18 23 29 32 29 27 27 26 24 25 26 25 22 21 22 24 23 26 25 23 20 18 17 18 18 16 17 17 15 12 14 17
nan nan nan nan nan nan nan 43 52 nan nan 54 52 nan nan 47 40 42 44 51 49 45 38 35 31 27 27 26 28 29 27 31 31 30 26 21 21 16 16 15 17 14 7 11 10 10 7 9 10 11 12 14 14 12 13 13 15 22 26 26 26 26 28 30 30 30 27 27 26 24 24 22 23 22 23 22 25 23 17 14 16 16 17 14 14 14 16
nan nan nan nan 30 nan 32 39 nan nan 48 48 51 50 54 56 49 46 46 43 43 45 39 32 28 25 23 26 30 35 37 37 32 33 26 20 22 21 20 25 25 17 17 16 18 17 14 14 12 13 15 14 13 14 14 15 16 17 19 21 22 25 26 30 32 30 28 28 27 26 27 27 26 24 22 24 24 21 21 19 17 13 16 17 18 16 15
nan nan nan nan 23 nan 28 nan nan nan nan 38 42 50 57 55 49 51 51 39 33 38 33 27 24 27 33 37 35 38 40 40 38 39 33 22 25 29 31 32 31 28 27 26 23 22 21 22 25 24 19 18 17 17 17 18 18 21 23 24 23 21 21 24 30 32 30 26 26 27 28 28 26 27 26 24 23 23 23 20 19 19 23 23 22 21 18
nan nan nan nan nan nan nan nan nan 30 nan 39 nan 54 54 53 48 43 43 42 34 30 26 25 27 31 33 35 36 36 36 41 38 29 28 26 26 27 29 29 27 27 27 25 26 27 26 26 27 27 24 21 19 18 18 18 18 18 20 22 24 25 22 21 24 28 28 27 26 29 31 28 28 30 28 26 25 25 29 28 24 23 22 23 22 23 28
nan nan 25 nan nan nan nan nan nan nan 21 22 42 55 54 51 45 42 44 42 39 34 32 35 36 36 34 37 38 36 33 39 35 28 26 29 31 28 27 29 28 26 27 27 27 29 24 24 24 22 23 24 22 22 21 21 20 19 20 21 23 23 20 16 18 25 27 26 26 27 27 26 27 30 32 31 29 32 30 28 28 27 26 29 29 28 28
23 nan nan nan nan nan nan nan nan nan nan nan nan 39 45 44 42 42 43 42 43 44 40 41 38 40 43 41 39 39 34 34 34 34 29 30 32 30 27 27 27 25 25 26 29 30 27 28 29 28 27 26 26 26 26 25 24 23 23 24 25 25 24 22 21 21 20 19 20 20 19 20 20 23 27 31 32 32 31 32 28 26 30 29 31 31 28
nan nan nan 26 30 25 nan 30 nan nan nan nan 25 25 32 37 36 40 43 46 46 47 40 31 35 45 46 47 44 44 41 38 39 37 34 32 32 33 29 27 29 31 33 31 30 31 31 32 33 32 29 27 26 27 28 27 26 26 26 26 27 26 26 26 26 24 23 22 20 22 23 23 19 15 16 20 25 29 28 30 33 32 28 33 34 34 34
20 18 nan nan nan nan 27 29 nan nan nan nan 30 27 nan 35 34 34 39 44 47 48 45 40 34 35 48 49 47 45 45 45 42 41 41 39 37 36 34 35 36 36 35 35 33 34 35 35 34 32 30 28 26 25 27 27 27 26 28 28 28 28 29 29 28 27 26 26 27 26 25 25 23 19 17 17 15 21 26 32 32 31 33 36 38 38 38
nan nan nan nan nan nan nan 21 nan nan nan nan nan nan 28 30 32 33 35 40 42 45 45 42 nan 34 40 44 45 44 45 42 39 40 41 42 41 38 38 41 42 41 39 37 35 35 36 37 36 34 33 31 29 26 27 30 30 29 29 28 29 29 29 30 28 27 28 29 30 30 30 30 29 27 23 21 19 17 18 23 27 30 32 37 40 43 44
nan 20 18 nan nan 17 20 24 nan nan nan nan nan nan nan 29 34 32 34 36 39 40 43 43 42 37 38 37 40 nan 43 43 42 42 40 40 41 43 43 43 42 40 37 37 39 41 41 41 42 40 38 36 34 31 31 31 31 31 29 29 31 31 30 29 29 29 28 29 31 31 29 30 30 30 27 24 22 21 18 17 19 22 27 32 37 40 41
16 19 20 nan 15 12 nan 20 nan 26 27 nan nan nan nan nan 34 34 35 36 37 40 42 nan nan nan nan 31 38 41 45 48 47 nan 40 43 43 41 41 39 40 43 43 43 43 43 41 40 41 41 40 39 39 37 36 35 35 34 32 30 31 32 32 33 33 31 30 29 30 30 30 29 29 30 28 28 29 28 24 22 21 21 24 27 30 32 33
18 20 20 18 19 nan 10 12 19 26 18 22 29 nan 31 29 34 37 37 37 36 nan nan 37 nan nan nan nan nan 39 nan nan nan nan 44 43 42 43 44 45 44 44 44 43 44 44 43 43 43 42 42 41 39 39 39 39 37 35 34 33 32 32 32 33 34 33 31 30 30 31 31 29 29 30 30 32 32 32 nan 30 30 28 29 30 31 30 29
nan 16 22 nan 14 17 15 14 14 28 25 27 27 27 31 33 34 35 37 37 37 38 39 38 nan nan nan nan nan 34 42 45 43 nan nan 45 nan 45 44 44 45 46 46 47 48 48 47 46 44 43 44 43 41 41 42 41 38 37 36 35 34 32 32 34 35 36 34 34 33 31 31 30 30 30 31 32 33 35 34 33 32 31 33 33 33 32 31
nan nan 22 nan 16 16 20 21 21 24 28 28 30 27 27 28 30 33 37 40 39 38 39 38 37 nan nan nan nan nan nan 36 nan nan nan nan 41 43 46 47 47 48 48 48 48 49 47 47 46 46 45 45 43 42 43 40 40 38 36 36 36 36 36 35 35 36 36 35 34 34 34 31 30 29 29 30 nan nan 32 31 30 nan 32 33 33 32 30
15 18 18 15 14 19 20 21 21 23 25 27 34 35 30 27 29 30 33 38 40 40 40 41 41 39 37 nan 37 nan nan nan nan nan nan nan nan nan nan nan nan nan nan nan nan nan nan nan nan nan nan 47 47 45 42 41 41 40 37 37 38 39 39 37 36 36 35 34 34 34 34 34 32 30 30 nan 28 26 nan nan nan nan nan nan nan nan 29
19 20 18 14 17 18 nan nan 20 23 26 28 30 31 28 27 28 28 31 32 37 37 38 39 41 42 42 39 36 37 42 41 nan nan nan nan nan nan nan nan nan nan nan nan nan nan nan nan nan nan nan nan nan 47 nan nan nan nan nan 37 38 39 40 nan nan nan nan nan nan nan nan nan nan nan 32 32 nan nan 25 nan nan nan nan nan nan nan 29
nan nan 16 17 16 15 17 20 20 22 23 nan 27 28 25 24 27 29 30 32 33 33 32 36 37 39 39 41 43 46 43 41 39 38 36 39 nan nan nan nan nan nan nan nan nan nan nan nan nan nan nan nan nan nan nan nan nan nan nan nan nan nan nan nan nan nan nan nan nan nan nan nan nan nan nan nan 35 nan nan nan nan nan nan nan nan nan nan
13 14 15 17 16 17 17 18 19 21 nan 26 27 27 27 25 25 27 28 28 30 29 31 31 34 34 36 37 39 43 45 44 44 47 46 44 42 nan nan nan nan nan nan nan nan nan nan nan nan nan nan nan nan nan nan nan nan nan nan nan nan nan nan nan nan nan nan nan nan nan nan nan nan nan nan nan nan nan nan nan nan nan nan nan nan nan nan
16 15 12 14 nan nan 18 20 21 21 22 nan 27 nan 30 28 26 26 26 26 28 27 29 31 31 31 30 32 32 35 37 38 40 43 44 45 44 42 nan nan nan 47 nan nan nan nan nan nan nan nan nan nan nan nan nan nan nan nan nan nan nan nan nan nan nan nan nan nan nan nan nan nan nan nan nan nan nan nan nan nan nan nan nan nan nan nan nan
14 11 nan nan nan nan 16 19 19 19 21 23 25 nan nan nan 30 27 26 26 26 28 28 29 29 30 29 31 32 32 32 31 35 37 39 40 41 42 nan nan nan nan nan nan nan nan nan nan nan nan nan nan nan nan nan nan nan nan nan nan nan nan nan nan nan nan nan nan nan nan nan nan nan nan nan nan nan nan nan nan nan nan nan nan nan nan nan
13 11 16 19 18 16 15 18 18 19 20 23 25 26 27 nan 29 30 29 28 27 27 27 27 28 29 29 30 30 31 31 31 32 32 34 34 35 37 nan nan 42 43 nan nan nan nan nan nan nan nan nan nan nan nan nan nan nan nan nan nan nan nan nan nan nan nan nan nan nan nan nan nan nan nan nan nan nan nan nan nan nan nan nan nan nan nan nan
18 14 11 15 14 14 14 16 17 19 19 23 25 26 27 29 30 29 30 28 28 27 27 27 27 28 28 28 27 28 29 30 29 33 31 31 32 33 35 35 37 40 42 nan nan nan nan nan nan nan nan nan nan nan nan nan nan nan nan nan nan nan nan nan nan nan nan nan nan nan nan nan nan nan nan nan nan nan nan nan nan nan nan nan nan nan nan
18 17 15 16 19 18 17 17 18 19 21 23 25 26 27 nan nan 29 30 29 28 29 29 28 29 28 29 29 29 29 28 28 29 29 30 31 31 30 31 31 32 35 38 41 nan nan nan nan nan nan nan nan nan nan nan nan nan nan nan nan nan nan nan nan nan nan nan nan nan nan nan nan nan nan nan nan nan nan nan nan nan nan nan nan nan nan nan
17 18 17 17 17 18 19 18 21 21 22 23 24 25 28 28 nan nan 31 30 30 29 29 30 31 32 30 30 30 29 30 29 30 31 31 31 29 29 29 29 31 34 36 38 40 nan nan nan nan nan nan nan nan nan nan nan nan nan nan nan nan nan nan nan nan nan nan nan nan nan nan nan nan nan nan nan nan nan nan nan nan nan nan nan nan nan nan
19 18 17 17 16 19 20 21 22 22 23 24 nan 24 27 nan nan nan nan 34 32 31 31 31 32 31 32 31 30 31 30 34 34 33 31 31 31 31 31 31 31 32 33 35 37 38 nan 40 nan nan nan nan nan nan nan nan nan nan nan nan nan nan nan nan nan nan nan nan nan nan nan nan nan nan nan nan nan nan nan nan nan nan nan nan nan nan nan
19 18 15 15 18 22 25 25 23 23 23 24 nan nan nan nan nan nan nan nan 34 32 34 36 33 32 32 34 32 33 33 32 32 34 33 33 34 34 34 34 34 32 34 35 37 37 38 39 nan nan nan nan nan nan nan nan nan nan nan nan nan nan nan nan nan nan nan nan nan nan nan nan nan nan nan nan nan nan nan nan nan nan nan nan nan nan nan
20 19 19 21 25 27 27 26 24 25 25 26 nan nan nan nan nan nan nan nan nan nan nan 39 36 35 35 36 35 35 35 35 35 34 34 36 37 37 38 38 38 37 36 36 36 37 37 36 36 nan nan nan nan nan nan nan nan nan nan nan nan nan nan nan nan nan nan nan nan nan nan nan nan nan nan nan nan nan nan nan nan nan nan nan nan nan nan
21 22 21 24 24 26 24 26 26 26 26 27 nan nan nan nan nan nan nan nan nan nan nan nan nan nan nan nan 38 38 37 38 38 39 40 38 37 39 40 41 40 39 38 37 38 40 39 40 39 39 41 nan nan nan nan nan nan nan nan nan nan nan nan nan nan nan nan nan nan nan nan nan nan nan nan nan nan nan nan nan nan nan nan nan nan nan nan
22 21 23 25 25 26 25 27 28 27 nan nan nan nan nan nan nan nan nan nan nan nan nan nan nan nan nan nan nan 40 41 40 40 40 39 42 42 40 41 42 41 41 41 39 39 40 42 44 44 43 46 45 nan nan nan nan nan nan nan nan nan nan nan nan nan nan nan nan nan nan nan nan nan nan nan nan nan nan nan nan nan nan nan nan nan nan nan
23 23 24 24 24 24 27 28 26 27 nan nan nan nan nan nan nan nan nan nan nan nan nan nan nan nan nan nan nan nan nan nan 41 41 42 42 43 45 46 46 45 45 45 44 48 46 42 43 45 45 48 45 nan nan nan nan nan nan nan nan nan nan nan nan nan nan nan nan nan nan nan nan nan nan nan nan nan nan nan nan nan nan nan nan nan nan nan
23 24 25 25 26 nan 27 27 nan nan nan nan nan nan nan nan nan nan nan nan nan nan nan nan nan nan nan nan nan nan nan nan nan nan nan 43 43 43 44 46 48 48 49 51 49 51 53 51 48 50 51 47 47 47 nan nan nan nan nan nan nan nan nan nan nan nan nan nan nan nan nan nan nan nan nan nan nan nan nan nan nan nan nan nan nan nan nan
24 23 25 27 26 27 nan nan nan nan nan nan nan nan nan nan nan nan nan nan nan nan nan nan nan nan nan nan nan nan nan nan nan nan nan 44 45 45 45 45 47 49 49 51 51 53 54 53 52 53 54 52 52 53 nan nan nan nan nan nan nan nan nan nan nan nan nan nan nan nan nan nan nan nan nan nan nan nan nan nan nan nan nan nan nan nan nan
25 30 29 30 29 30 30 nan nan nan nan nan nan nan nan nan nan nan nan nan nan nan nan nan nan nan nan nan nan nan nan nan nan nan nan 45 46 47 51 51 49 48 50 49 49 51 50 50 51 52 53 54 56 57 59 nan nan nan nan nan nan nan nan nan nan nan nan nan nan nan nan nan nan nan nan nan nan nan nan nan nan nan nan nan nan nan nan
29 30 31 32 32 33 nan nan nan nan nan nan nan nan nan nan nan nan nan nan nan nan nan nan nan nan nan nan nan nan nan nan nan nan nan 44 44 46 47 48 47 48 48 50 48 46 47 46 45 47 50 51 55 58 57 59 nan nan nan nan nan nan nan nan nan nan nan nan nan nan nan nan nan nan nan nan nan nan nan nan nan nan nan nan nan nan nan
30 32 32 33 34 nan nan nan nan nan nan nan nan nan nan nan nan nan nan nan nan nan nan nan nan nan nan nan nan nan nan nan nan nan nan 45 45 44 43 43 44 46 48 47 49 51 50 49 48 47 51 nan 50 57 57 60 60 63 nan nan nan nan nan nan nan nan nan nan nan nan nan nan nan nan nan nan nan nan nan nan nan nan nan nan nan nan nan
31 33 34 34 nan nan nan nan nan nan nan nan nan nan nan nan nan nan nan nan nan nan nan nan nan nan nan nan nan nan nan nan nan nan nan nan 43 42 41 41 44 48 45 44 46 46 53 54 56 56 nan 51 54 53 nan 58 nan nan nan nan nan nan nan nan nan nan nan nan nan nan nan nan nan nan nan nan nan nan nan nan nan nan nan nan nan nan nan
34 nan nan nan nan nan nan nan nan nan nan nan nan nan nan nan nan nan nan nan nan nan nan nan nan nan nan nan nan nan nan nan nan nan nan nan 42 41 40 40 42 45 45 45 47 45 47 54 53 52 54 57 nan nan nan 54 nan nan nan nan nan nan nan nan nan nan nan nan nan nan nan nan nan nan nan nan nan nan nan nan nan nan nan nan nan nan nan
nan nan nan nan nan nan nan nan nan nan nan nan nan nan nan nan nan nan nan nan nan nan nan nan nan nan nan nan nan nan nan nan nan nan nan nan 39 37 36 35 36 38 41 46 45 45 43 39 43 48 53 60 59 nan 56 56 nan nan nan nan nan nan nan nan nan nan nan nan nan nan nan nan nan nan nan nan nan nan nan nan nan nan nan nan nan nan nan
nan nan nan nan nan nan nan nan nan nan nan nan nan nan nan nan nan nan nan nan nan nan nan nan nan nan nan nan nan nan nan nan nan nan nan nan nan 34 33 32 37 39 41 43 43 45 45 41 nan 40 50 55 52 nan nan nan nan nan nan nan nan nan nan nan nan nan nan nan nan nan nan nan nan nan nan nan nan nan nan nan nan nan nan nan nan nan nan
nan nan nan nan nan nan nan nan nan nan nan nan nan nan nan nan nan nan nan nan nan nan nan nan nan nan nan nan nan nan nan nan nan nan nan nan nan nan 30 32 38 38 43 46 47 47 46 48 45 46 52 54 55 59 60 59 nan nan nan nan nan nan nan nan nan nan nan nan nan nan nan nan nan nan nan nan nan nan nan nan nan nan nan nan nan nan nan
nan nan nan nan nan nan nan nan nan nan nan nan nan nan nan nan nan nan nan nan nan nan nan nan nan nan nan nan nan nan nan nan nan nan nan nan 37 39 35 36 40 45 48 50 49 47 47 48 nan 48 50 52 53 59 58 nan nan nan nan nan nan nan nan nan nan nan nan nan nan nan nan nan nan nan nan nan nan nan nan nan nan nan nan nan nan nan nan
nan nan nan nan nan nan nan nan nan nan nan nan nan nan nan nan nan nan nan nan nan nan nan nan nan nan nan nan nan nan nan nan 31 nan nan 32 34 37 38 39 43 48 49 50 49 48 47 47 nan nan nan nan 53 51 47 nan nan nan nan nan nan nan nan nan nan nan nan nan nan nan nan nan nan nan nan nan nan nan nan nan nan nan nan nan nan nan nan
nan nan nan nan nan nan nan nan nan nan nan nan nan nan nan nan nan nan nan nan nan nan nan nan nan nan nan nan nan nan nan 30 29 nan nan 30 33 38 44 45 47 47 48 48 46 45 45 nan nan nan nan nan nan nan nan nan nan nan nan nan nan nan nan nan nan nan nan nan nan nan nan nan nan nan nan nan nan nan nan nan nan nan nan nan nan nan nan
nan nan nan nan nan nan nan nan nan nan nan nan nan nan nan nan nan nan nan nan nan nan nan nan nan nan nan nan nan nan nan nan nan 27 29 nan nan 40 48 nan nan 47 nan 49 nan nan nan nan nan nan nan nan nan nan nan nan nan nan nan nan nan nan nan nan nan nan nan nan nan nan nan nan nan nan nan nan nan nan nan nan nan nan nan nan nan nan nan
nan nan nan nan nan nan nan nan nan nan nan nan nan nan nan nan nan nan nan nan nan nan nan nan nan nan nan nan nan nan nan nan nan 31 31 35 40 nan nan nan nan nan nan nan nan nan nan nan nan nan nan nan nan nan nan nan nan nan nan nan nan nan nan nan nan nan nan nan nan nan nan nan nan nan nan nan nan nan nan nan nan nan nan nan nan nan nan
nan nan nan nan nan nan nan nan nan nan nan nan nan nan nan nan nan nan nan nan nan nan nan nan nan nan nan nan nan nan nan nan nan nan 30 35 nan nan nan nan nan nan nan nan nan nan nan nan nan nan nan nan nan nan nan nan nan nan nan nan nan nan nan nan nan nan nan nan nan nan nan nan nan nan nan nan nan nan nan nan nan nan nan nan nan nan nan
nan nan nan nan nan nan nan nan nan nan nan nan nan nan nan nan nan nan nan nan nan nan nan nan nan nan nan nan nan nan nan nan 27 nan nan nan nan nan nan nan nan nan nan nan nan nan nan nan nan nan nan nan nan nan nan nan nan nan nan nan nan nan nan nan nan nan nan nan nan nan nan nan nan nan nan nan nan nan nan nan nan nan nan nan nan nan nan
nan nan nan nan nan nan nan nan nan nan nan nan nan nan nan nan nan nan nan nan nan nan nan nan nan nan nan nan nan nan nan nan nan nan nan nan nan nan nan nan nan nan nan nan nan nan nan nan nan nan nan nan nan nan nan nan nan nan nan nan nan nan nan nan nan nan nan nan nan nan nan nan nan nan nan nan nan nan nan nan nan nan nan nan nan nan nan
nan nan nan nan nan nan nan nan nan nan nan nan nan nan nan nan nan nan nan nan nan nan nan nan nan nan nan nan nan nan nan nan nan nan nan nan nan nan nan nan nan nan nan nan nan nan nan nan nan nan nan nan nan nan nan nan nan nan nan nan nan nan nan nan nan nan nan nan nan nan nan nan nan nan nan nan nan nan nan nan nan nan nan nan nan nan nan
nan nan nan nan nan nan nan nan nan nan nan nan nan nan nan nan nan nan nan nan nan nan nan nan nan nan nan nan nan nan nan nan nan nan nan nan nan nan nan nan nan nan nan nan nan nan nan nan nan nan nan nan nan nan nan nan nan nan nan nan nan nan nan nan nan nan nan nan nan nan nan nan nan nan nan nan nan nan nan nan nan nan nan nan nan nan nan
Wind_Direction
nan nan nan nan nan nan nan nan nan 175 176 nan nan nan nan nan nan nan 255 260 257 254 256 260 260 262 264 269 277 283 263 261 261 256 249 252 252 242 236 235 239 230 225 228 229 239 240 244 245 253 256 251 246 246 251 246 229 224 225 227 230 236 234 233 236 242 230 224 215 222 237 235 232 231 230 232 236 237 245 251 253 254 250 244 259 264 261
nan nan nan nan nan nan 187 191 185 186 nan 180 nan nan nan nan 197 nan 245 246 249 251 253 259 266 262 263 257 256 267 272 266 256 255 251 246 238 241 241 239 235 230 215 205 229 236 251 258 256 261 262 263 257 250 250 244 228 224 226 228 232 233 233 237 233 229 236 241 241 231 232 229 228 222 225 224 231 239 239 243 244 247 240 243 240 261 266
nan nan nan nan nan nan nan 198 197 nan nan 188 174 nan nan 197 209 204 241 243 242 243 241 248 252 254 253 254 255 264 269 270 267 258 250 236 241 238 250 253 248 234 241 233 229 235 224 262 272 270 268 273 275 271 257 245 232 224 230 233 238 242 239 236 233 230 229 233 233 231 232 235 249 246 236 226 218 210 226 243 246 250 259 248 247 245 262
nan nan nan nan 215 nan 220 208 nan nan 201 198 186 196 201 207 203 212 228 232 235 240 245 249 256 252 251 250 252 248 247 244 241 257 248 231 235 245 252 252 259 262 251 248 237 240 238 242 247 256 257 255 262 251 244 233 227 228 235 238 240 243 242 238 235 229 227 228 232 233 232 232 229 232 244 257 253 231 209 205 223 237 247 246 240 236 239
nan nan nan nan 216 nan 221 nan nan nan nan 213 202 206 210 211 206 217 228 233 227 234 235 247 250 247 242 238 236 238 241 244 229 232 241 228 228 233 239 244 247 248 246 241 242 242 242 243 241 238 249 252 251 252 249 241 239 240 237 236 239 244 248 244 237 231 227 226 232 235 239 238 236 236 238 242 248 253 256 242 228 224 241 234 226 221 229
nan nan nan nan nan nan nan nan nan 226 nan 217 nan 212 212 212 215 222 224 234 238 233 232 238 243 245 243 245 236 228 235 239 240 238 246 238 232 236 238 244 249 250 251 251 247 243 238 234 237 240 244 251 251 252 252 249 250 249 247 244 243 242 244 243 234 227 227 230 234 240 245 246 246 250 251 248 242 243 239 236 236 240 241 240 242 245 245
nan nan 189 nan nan nan nan nan nan nan 262 230 213 216 216 213 212 221 228 226 233 230 225 234 240 241 245 247 245 236 225 232 233 236 239 239 239 236 234 241 247 249 254 258 261 262 263 266 264 258 257 257 257 258 260 259 258 258 255 252 249 248 250 248 237 226 226 234 238 244 250 254 254 256 255 252 249 248 250 246 235 237 241 249 250 252 255
222 nan nan nan nan nan nan nan nan nan nan nan nan 216 213 210 210 215 227 230 224 216 226 238 241 247 247 242 242 245 241 237 238 239 239 241 242 238 233 242 251 254 252 252 257 259 262 264 265 265 265 264 263 262 262 261 260 262 262 258 254 253 252 248 242 233 230 233 241 242 247 254 255 255 250 249 248 250 249 251 251 247 246 249 253 254 256
nan nan nan 215 216 218 nan 218 nan nan nan nan 237 230 213 209 210 221 223 225 227 229 219 220 239 248 245 243 240 239 237 237 240 242 243 246 246 243 240 244 250 254 259 257 257 259 258 258 259 258 258 262 264 267 268 266 265 263 263 261 259 258 255 251 247 246 243 243 245 248 244 246 249 252 254 250 245 244 245 247 249 253 253 253 253 254 258
232 228 nan nan nan nan 220 214 nan nan nan nan 258 251 nan 217 221 226 227 225 222 223 228 221 207 227 235 232 233 237 235 233 238 239 239 243 248 247 245 243 245 248 252 256 256 256 258 258 261 263 264 262 263 267 268 266 263 262 263 267 267 265 263 259 257 256 259 257 253 251 255 256 256 254 252 250 257 254 252 251 252 256 253 254 255 255 255
nan nan nan nan nan nan nan 220 nan nan nan nan nan nan 243 231 228 225 228 228 226 224 227 227 nan 221 230 226 227 229 235 240 243 241 240 243 244 247 247 245 244 242 243 246 253 257 259 260 261 267 273 273 262 259 261 264 264 257 252 250 261 267 263 268 268 267 264 264 263 260 259 258 259 260 256 255 253 258 260 258 258 257 254 254 255 255 254
nan 239 234 nan nan 228 220 216 nan nan nan nan nan nan nan 237 237 234 231 233 234 233 233 232 231 229 234 231 232 nan 240 244 244 245 246 247 247 244 244 244 246 247 246 247 244 242 242 247 256 259 258 260 263 267 267 264 260 256 253 247 241 244 256 260 259 261 266 270 268 267 267 263 262 261 260 260 262 260 264 267 262 260 261 260 261 260 257
253 270 264 nan 241 241 nan 206 nan 216 213 nan nan nan nan nan 244 244 245 241 237 240 240 nan nan nan nan 234 237 238 240 240 243 nan 242 244 245 246 247 248 246 243 241 239 241 243 244 248 253 259 261 262 262 260 258 257 259 261 262 255 247 245 244 249 251 253 252 254 262 267 266 265 262 262 261 256 255 258 258 259 260 263 268 266 261 258 258
220 221 259 253 238 nan 212 213 223 214 209 236 236 nan 233 237 244 248 250 249 243 nan nan 243 nan nan nan nan nan 235 nan nan nan nan 249 251 245 243 244 243 244 245 246 248 251 253 254 255 256 257 258 257 255 254 255 254 254 256 258 258 256 253 250 249 248 246 248 250 249 254 262 262 261 261 261 260 258 257 nan 261 261 259 258 259 261 259 261
nan 246 250 nan 243 237 214 206 238 220 225 237 240 240 236 240 247 247 251 253 250 249 250 253 nan nan nan nan nan 233 241 241 230 nan nan 244 nan 245 245 244 244 246 246 247 249 251 251 252 254 256 257 255 253 251 251 252 251 249 250 253 255 253 252 251 249 248 246 247 249 249 249 253 255 258 259 259 258 259 260 260 259 259 260 262 264 266 270
nan nan 241 nan 234 231 230 235 239 230 234 237 244 243 243 240 243 245 244 247 250 249 252 253 256 nan nan nan nan nan nan 258 nan nan nan nan 247 247 246 245 246 246 247 248 249 251 252 254 255 255 255 253 250 249 248 248 251 250 249 249 250 251 249 248 249 250 250 248 250 252 254 254 253 252 257 257 nan nan 261 259 258 nan 261 265 267 266 266
233 237 244 247 257 246 240 244 247 239 245 245 242 244 242 242 245 246 252 253 250 247 250 252 256 260 260 nan 258 nan nan nan nan nan nan nan nan nan nan nan nan nan nan nan nan nan nan nan nan nan nan 253 248 247 247 247 248 250 250 246 244 245 246 248 250 250 249 251 252 254 254 254 253 252 253 nan 257 257 nan nan nan nan nan nan nan nan 266
260 257 260 265 252 248 nan nan 238 238 239 247 251 250 245 240 243 243 251 253 251 248 247 254 254 253 250 258 265 260 263 265 nan nan nan nan nan nan nan nan nan nan nan nan nan nan nan nan nan nan nan nan nan 243 nan nan nan nan nan 247 243 242 244 nan nan nan nan nan nan nan nan nan nan nan 256 258 nan nan 254 nan nan nan nan nan nan nan 267
nan nan 267 267 267 264 260 254 255 251 245 nan 251 259 256 248 247 249 246 247 250 253 250 249 250 249 251 253 247 245 249 250 255 259 253 251 nan nan nan nan nan nan nan nan nan nan nan nan nan nan nan nan nan nan nan nan nan nan nan nan nan nan nan nan nan nan nan nan nan nan nan nan nan nan nan nan 249 nan nan nan nan nan nan nan nan nan nan
252 264 262 259 254 250 248 255 253 251 nan 250 255 258 262 257 251 249 253 252 250 249 252 249 254 255 252 250 249 249 245 248 247 246 245 247 255 nan nan nan nan nan nan nan nan nan nan nan nan nan nan nan nan nan nan nan nan nan nan nan nan nan nan nan nan nan nan nan nan nan nan nan nan nan nan nan nan nan nan nan nan nan nan nan nan nan nan
264 269 271 260 nan nan 253 253 249 245 249 nan 250 nan 268 271 261 254 252 253 256 253 256 259 257 254 257 261 258 254 255 252 249 249 249 249 244 245 nan nan nan 250 nan nan nan nan nan nan nan nan nan nan nan nan nan nan nan nan nan nan nan nan nan nan nan nan nan nan nan nan nan nan nan nan nan nan nan nan nan nan nan nan nan nan nan nan nan
265 249 nan nan nan nan 261 255 253 258 256 256 256 nan nan nan 266 266 262 256 252 257 255 256 258 259 261 267 266 264 263 262 260 257 253 250 250 249 nan nan nan nan nan nan nan nan nan nan nan nan nan nan nan nan nan nan nan nan nan nan nan nan nan nan nan nan nan nan nan nan nan nan nan nan nan nan nan nan nan nan nan nan nan nan nan nan nan
269 262 246 260 270 265 251 253 252 250 255 259 260 258 259 nan 261 265 268 267 265 261 260 261 264 262 263 262 268 269 269 268 267 265 263 260 257 257 nan nan 255 254 nan nan nan nan nan nan nan nan nan nan nan nan nan nan nan nan nan nan nan nan nan nan nan nan nan nan nan nan nan nan nan nan nan nan nan nan nan nan nan nan nan nan nan nan nan
270 275 265 264 268 277 269 260 253 249 249 261 260 259 260 260 263 264 264 265 268 268 266 267 266 267 269 269 271 271 270 270 271 272 268 266 265 263 262 260 261 260 260 nan nan nan nan nan nan nan nan nan nan nan nan nan nan nan nan nan nan nan nan nan nan nan nan nan nan nan nan nan nan nan nan nan nan nan nan nan nan nan nan nan nan nan nan
266 261 263 269 272 277 275 270 266 263 257 255 260 259 257 nan nan 265 268 269 266 269 273 268 266 266 267 268 270 270 273 277 277 276 276 275 272 269 269 268 268 267 265 263 nan nan nan nan nan nan nan nan nan nan nan nan nan nan nan nan nan nan nan nan nan nan nan nan nan nan nan nan nan nan nan nan nan nan nan nan nan nan nan nan nan nan nan
267 265 266 263 274 271 274 280 270 262 260 265 270 271 274 269 nan nan 275 273 271 267 265 269 272 268 263 264 267 270 273 273 272 273 275 276 276 276 275 274 271 269 266 265 266 nan nan nan nan nan nan nan nan nan nan nan nan nan nan nan nan nan nan nan nan nan nan nan nan nan nan nan nan nan nan nan nan nan nan nan nan nan nan nan nan nan nan
266 269 267 273 277 279 264 267 274 270 269 268 nan 270 272 nan nan nan nan 275 271 271 270 269 270 269 273 272 266 264 263 268 271 272 271 273 275 276 275 274 274 274 272 270 269 270 nan 268 nan nan nan nan nan nan nan nan nan nan nan nan nan nan nan nan nan nan nan nan nan nan nan nan nan nan nan nan nan nan nan nan nan nan nan nan nan nan nan
267 268 267 267 278 282 279 280 278 277 273 267 nan nan nan nan nan nan nan nan 276 275 276 272 270 271 270 272 271 271 273 273 271 271 271 270 268 269 272 273 273 272 273 271 272 272 272 270 nan nan nan nan nan nan nan nan nan nan nan nan nan nan nan nan nan nan nan nan nan nan nan nan nan nan nan nan nan nan nan nan nan nan nan nan nan nan nan
265 268 272 274 274 275 279 279 284 280 277 279 nan nan nan nan nan nan nan nan nan nan nan 277 278 278 275 273 272 271 270 270 272 275 274 271 270 266 264 264 265 267 269 273 274 273 271 269 269 nan nan nan nan nan nan nan nan nan nan nan nan nan nan nan nan nan nan nan nan nan nan nan nan nan nan nan nan nan nan nan nan nan nan nan nan nan nan
270 269 274 274 279 281 285 285 284 282 276 271 nan nan nan nan nan nan nan nan nan nan nan nan nan nan nan nan 278 277 275 272 270 270 274 271 268 270 272 270 267 267 270 273 275 275 274 272 272 273 273 nan nan nan nan nan nan nan nan nan nan nan nan nan nan nan nan nan nan nan nan nan nan nan nan nan nan nan nan nan nan nan nan nan nan nan nan
277 281 280 278 282 285 287 286 282 283 nan nan nan nan nan nan nan nan nan nan nan nan nan nan nan nan nan nan nan 272 274 275 273 271 271 275 277 275 271 269 269 270 268 265 268 272 276 274 274 274 270 271 nan nan nan nan nan nan nan nan nan nan nan nan nan nan nan nan nan nan nan nan nan nan nan nan nan nan nan nan nan nan nan nan nan nan nan
285 285 284 284 286 290 286 282 285 285 nan nan nan nan nan nan nan nan nan nan nan nan nan nan nan nan nan nan nan nan nan nan 275 275 274 273 272 274 275 277 277 274 271 269 270 270 266 268 273 273 272 271 nan nan nan nan nan nan nan nan nan nan nan nan nan nan nan nan nan nan nan nan nan nan nan nan nan nan nan nan nan nan nan nan nan nan nan
290 291 291 292 291 nan 292 292 nan nan nan nan nan nan nan nan nan nan nan nan nan nan nan nan nan nan nan nan nan nan nan nan nan nan nan 275 272 271 271 271 271 270 270 269 264 263 269 270 270 272 273 273 272 273 nan nan nan nan nan nan nan nan nan nan nan nan nan nan nan nan nan nan nan nan nan nan nan nan nan nan nan nan nan nan nan nan nan
292 289 288 293 292 291 nan nan nan nan nan nan nan nan nan nan nan nan nan nan nan nan nan nan nan nan nan nan nan nan nan nan nan nan nan 275 274 272 269 266 266 269 269 267 268 268 266 266 266 268 272 272 273 274 nan nan nan nan nan nan nan nan nan nan nan nan nan nan nan nan nan nan nan nan nan nan nan nan nan nan nan nan nan nan nan nan nan
287 281 283 289 289 284 282 nan nan nan nan nan nan nan nan nan nan nan nan nan nan nan nan nan nan nan nan nan nan nan nan nan nan nan nan 272 271 269 268 267 264 265 265 263 263 264 266 264 262 262 267 272 274 274 272 nan nan nan nan nan nan nan nan nan nan nan nan nan nan nan nan nan nan nan nan nan nan nan nan nan nan nan nan nan nan nan nan
286 288 288 288 287 286 nan nan nan nan nan nan nan nan nan nan nan nan nan nan nan nan nan nan nan nan nan nan nan nan nan nan nan nan nan 273 271 269 269 268 267 264 263 266 267 264 263 264 266 263 258 266 271 271 272 272 nan nan nan nan nan nan nan nan nan nan nan nan nan nan nan nan nan nan nan nan nan nan nan nan nan nan nan nan nan nan nan
291 292 292 291 288 nan nan nan nan nan nan nan nan nan nan nan nan nan nan nan nan nan nan nan nan nan nan nan nan nan nan nan nan nan nan 272 271 270 269 267 265 266 265 262 262 264 264 260 264 269 263 nan 254 258 262 266 264 264 nan nan nan nan nan nan nan nan nan nan nan nan nan nan nan nan nan nan nan nan nan nan nan nan nan nan nan nan nan
291 291 291 291 nan nan nan nan nan nan nan nan nan nan nan nan nan nan nan nan nan nan nan nan nan nan nan nan nan nan nan nan nan nan nan nan 271 269 267 267 266 267 265 264 263 261 262 267 268 260 nan 257 253 255 nan 264 nan nan nan nan nan nan nan nan nan nan nan nan nan nan nan nan nan nan nan nan nan nan nan nan nan nan nan nan nan nan nan
289 nan nan nan nan nan nan nan nan nan nan nan nan nan nan nan nan nan nan nan nan nan nan nan nan nan nan nan nan nan nan nan nan nan nan nan 273 271 270 268 265 262 260 256 252 250 257 266 267 267 264 260 nan nan nan 265 nan nan nan nan nan nan nan nan nan nan nan nan nan nan nan nan nan nan nan nan nan nan nan nan nan nan nan nan nan nan nan
nan nan nan nan nan nan nan nan nan nan nan nan nan nan nan nan nan nan nan nan nan nan nan nan nan nan nan nan nan nan nan nan nan nan nan nan 272 271 269 267 265 263 262 259 259 257 251 253 259 256 257 255 254 nan 257 262 nan nan nan nan nan nan nan nan nan nan nan nan nan nan nan nan nan nan nan nan nan nan nan nan nan nan nan nan nan nan nan
nan nan nan nan nan nan nan nan nan nan nan nan nan nan nan nan nan nan nan nan nan nan nan nan nan nan nan nan nan nan nan nan nan nan nan nan nan 267 266 265 261 259 259 259 258 254 255 254 nan 264 263 262 261 nan nan nan nan nan nan nan nan nan nan nan nan nan nan nan nan nan nan nan nan nan nan nan nan nan nan nan nan nan nan nan nan nan nan
nan nan nan nan nan nan nan nan nan nan nan nan nan nan nan nan nan nan nan nan nan nan nan nan nan nan nan nan nan nan nan nan nan nan nan nan nan nan 268 266 265 263 266 267 265 260 254 249 250 261 268 269 263 262 259 257 nan nan nan nan nan nan nan nan nan nan nan nan nan nan nan nan nan nan nan nan nan nan nan nan nan nan nan nan nan nan nan
nan nan nan nan nan nan nan nan nan nan nan nan nan nan nan nan nan nan nan nan nan nan nan nan nan nan nan nan nan nan nan nan nan nan nan nan 265 266 268 268 269 271 269 268 264 260 253 251 nan 252 263 265 263 261 258 nan nan nan nan nan nan nan nan nan nan nan nan nan nan nan nan nan nan nan nan nan nan nan nan nan nan nan nan nan nan nan nan
nan nan nan nan nan nan nan nan nan nan nan nan nan nan nan nan nan nan nan nan nan nan nan nan nan nan nan nan nan nan nan nan 268 nan nan 271 272 278 279 277 276 276 272 270 266 257 250 247 nan nan nan nan 268 268 263 nan nan nan nan nan nan nan nan nan nan nan nan nan nan nan nan nan nan nan nan nan nan nan nan nan nan nan nan nan nan nan nan
nan nan nan nan nan nan nan nan nan nan nan nan nan nan nan nan nan nan nan nan nan nan nan nan nan nan nan nan nan nan nan 276 279 nan nan 279 282 284 284 283 283 280 272 267 262 258 253 nan nan nan nan nan nan nan nan nan nan nan nan nan nan nan nan nan nan nan nan nan nan nan nan nan nan nan nan nan nan nan nan nan nan nan nan nan nan nan nan
nan nan nan nan nan nan nan nan nan nan nan nan nan nan nan nan nan nan nan nan nan nan nan nan nan nan nan nan nan nan nan nan nan 277 283 nan nan 286 284 nan nan 271 nan 257 nan nan nan nan nan nan nan nan nan nan nan nan nan nan nan nan nan nan nan nan nan nan nan nan nan nan nan nan nan nan nan nan nan nan nan nan nan nan nan nan nan nan nan
nan nan nan nan nan nan nan nan nan nan nan nan nan nan nan nan nan nan nan nan nan nan nan nan nan nan nan nan nan nan nan nan nan 281 288 290 289 nan nan nan nan nan nan nan nan nan nan nan nan nan nan nan nan nan nan nan nan nan nan nan nan nan nan nan nan nan nan nan nan nan nan nan nan nan nan nan nan nan nan nan nan nan nan nan nan nan nan
nan nan nan nan nan nan nan nan nan nan nan nan nan nan nan nan nan nan nan nan nan nan nan nan nan nan nan nan nan nan nan nan nan nan 287 293 nan nan nan nan nan nan nan nan nan nan nan nan nan nan nan nan nan nan nan nan nan nan nan nan nan nan nan nan nan nan nan nan nan nan nan nan nan nan nan nan nan nan nan nan nan nan nan nan nan nan nan
nan nan nan nan nan nan nan nan nan nan nan nan nan nan nan nan nan nan nan nan nan nan nan nan nan nan nan nan nan nan nan nan 287 nan nan nan nan nan nan nan nan nan nan nan nan nan nan nan nan nan nan nan nan nan nan nan nan nan nan nan nan nan nan nan nan nan nan nan nan nan nan nan nan nan nan nan nan nan nan nan nan nan nan nan nan nan nan
nan nan nan nan nan nan nan nan nan nan nan nan nan nan nan nan nan nan nan nan nan nan nan nan nan nan nan nan nan nan nan nan nan nan nan nan nan nan nan nan nan nan nan nan nan nan nan nan nan nan nan nan nan nan nan nan nan nan nan nan nan nan nan nan nan nan nan nan nan nan nan nan nan nan nan nan nan nan nan nan nan nan nan nan nan nan nan
nan nan nan nan nan nan nan nan nan nan nan nan nan nan nan nan nan nan nan nan nan nan nan nan nan nan nan nan nan nan nan nan nan nan nan nan nan nan nan nan nan nan nan nan nan nan nan nan nan nan nan nan nan nan nan nan nan nan nan nan nan nan nan nan nan nan nan nan nan nan nan nan nan nan nan nan nan nan nan nan nan nan nan nan nan nan nan
nan nan nan nan nan nan nan nan nan nan nan nan nan nan nan nan nan nan nan nan nan nan nan nan nan nan nan nan nan nan nan nan nan nan nan nan nan nan nan nan nan nan nan nan nan nan nan nan nan nan nan nan nan nan nan nan nan nan nan nan nan nan nan nan nan nan nan nan nan nan nan nan nan nan nan nan nan nan nan nan nan nan nan nan nan nan nan